Terminal Aerodrome Forecast
Issued by NWS

Home | Current Version | Previous Version | Text Only | Print | Product List | Glossary On
Versions: 1 2 3 4 5 6 7 8 9 10 11 12 13 14 15 16 17 18 19 20 21 22 23 24 25 26 27 28 29 30 31 32 33 34 35 36 37 38 39 40 41 42 43 44 45 46 47 48 49 50
000
FTUS45 KVEF 210500
TAFLAS
TAF
KLAS 210526Z 2106/2206 19008KT P6SM SCT120
     FM211500 13007KT P6SM SCT120
     FM212000 19010KT P6SM SCT090 SCT120 PROB30 2121/2203 P6SM -TSRA
      BKN090CB=

USA.gov is the U.S. government's official web portal to all federal, state and local government web resources and services.